Total_Precipitation_Accumulation
2.57 2.66 2.70 2.78 2.66 2.48 2.46 2.57 2.70 2.48 2.29 2.08 1.89 1.71 1.76 1.73 1.82 1.58 1.51 1.56 1.54 1.43 1.30 1.20 1.16 1.28 1.58 1.99 2.20 2.14 2.20 2.49 2.93 3.28 3.11 2.99 2.90 2.88
2.26 2.34 2.41 2.48 2.49 2.44 2.43 2.48 2.50 2.46 2.34 2.09 1.79 1.54 1.60 1.66 1.82 1.55 1.60 1.79 1.68 1.52 1.29 1.22 1.18 1.17 1.25 1.40 1.52 1.48 1.45 1.55 1.93 2.62 2.88 2.86 2.87 2.96
1.94 1.98 2.13 2.24 2.45 2.49 2.45 2.43 2.43 2.35 2.21 2.07 1.82 1.61 1.57 1.67 1.75 1.62 1.63 1.69 1.61 1.55 1.38 1.29 1.18 1.23 1.28 1.32 1.37 1.30 1.18 1.15 1.26 1.54 1.89 2.09 2.27 2.52
1.73 1.76 1.88 1.97 2.14 2.27 2.39 2.30 2.33 2.31 2.27 2.21 1.99 1.78 1.69 1.69 1.76 1.71 1.59 1.57 1.58 1.65 1.47 1.37 1.27 1.20 1.28 1.26 1.36 1.41 1.31 1.17 1.13 1.16 1.31 1.50 1.71 1.92
1.53 1.58 1.66 1.74 1.85 1.97 2.08 2.18 2.22 2.20 2.29 2.25 2.05 1.86 1.71 1.65 1.70 1.64 1.58 1.64 1.55 1.66 1.62 1.47 1.41 1.30 1.30 1.28 1.27 1.37 1.40 1.29 1.15 1.13 1.19 1.31 1.43 1.57
1.33 1.31 1.33 1.37 1.49 1.64 1.76 1.92 2.08 2.22 2.30 2.31 2.15 1.90 1.72 1.68 1.76 1.80 1.77 1.66 1.66 1.58 1.62 1.59 1.58 1.52 1.40 1.35 1.25 1.25 1.34 1.36 1.21 1.15 1.15 1.18 1.19 1.23
1.41 1.29 1.17 1.18 1.32 1.41 1.48 1.73 1.94 2.10 2.23 2.28 2.17 1.99 1.83 1.75 1.72 1.72 1.79 1.86 1.86 1.70 1.65 1.56 1.52 1.38 1.26 1.27 1.23 1.17 1.15 1.18 1.14 1.06 0.99 0.94 0.94 1.00
1.35 1.33 1.33 1.29 1.17 1.13 1.21 1.38 1.62 1.81 1.98 2.09 2.11 1.93 1.74 1.71 1.78 1.81 1.80 1.85 1.89 1.76 1.71 1.76 1.70 1.56 1.39 1.25 1.30 1.21 1.14 1.13 1.13 1.13 1.05 0.97 0.97 0.98
1.31 1.31 1.33 1.30 1.37 1.22 1.18 1.18 1.20 1.38 1.64 1.85 1.88 1.78 1.81 1.75 1.75 1.72 1.69 1.67 1.68 1.72 1.75 1.77 1.74 1.63 1.45 1.37 1.44 1.35 1.28 1.22 1.18 1.20 1.18 1.09 1.02 0.98
1.42 1.43 1.47 1.49 1.42 1.54 1.49 1.36 1.23 1.21 1.34 1.28 1.35 1.65 1.79 1.84 1.86 1.88 1.90 1.79 1.71 1.71 1.66 1.69 1.58 1.53 1.44 1.34 1.40 1.32 1.24 1.20 1.18 1.17 1.20 1.22 1.21 1.17
1.45 1.42 1.45 1.44 1.69 1.80 1.62 1.52 1.40 1.31 1.50 1.54 1.53 1.62 1.74 1.76 1.75 1.81 1.86 1.81 1.72 1.66 1.56 1.47 1.40 1.47 1.57 1.48 1.41 1.45 1.37 1.29 1.23 1.24 1.26 1.27 1.31 1.33
1.53 1.47 1.64 1.55 1.59 1.59 1.48 1.62 1.54 1.39 1.32 1.30 1.30 1.36 1.40 1.49 1.58 1.55 1.67 1.71 1.62 1.65 1.50 1.45 1.42 1.49 1.56 1.50 1.35 1.30 1.33 1.39 1.34 1.29 1.33 1.35 1.36 1.29
1.45 1.45 1.42 1.57 1.42 1.40 1.42 1.46 1.60 1.58 1.53 1.54 1.45 1.36 1.31 1.32 1.31 1.37 1.50 1.58 1.59 1.56 1.44 1.43 1.47 1.51 1.44 1.34 1.33 1.21 1.13 1.15 1.16 1.13 1.16 1.27 1.33 1.25
1.27 1.17 1.17 1.33 1.22 1.20 1.19 1.28 1.47 1.52 1.46 1.53 1.49 1.39 1.29 1.23 1.22 1.25 1.38 1.46 1.45 1.44 1.49 1.49 1.49 1.47 1.45 1.27 1.22 1.21 1.16 1.13 1.12 1.09 1.03 1.19 1.26 1.29
1.09 1.13 1.07 1.05 1.06 0.99 1.03 1.17 1.24 1.37 1.47 1.49 1.37 1.26 1.24 1.25 1.27 1.28 1.28 1.35 1.39 1.36 1.36 1.37 1.43 1.48 1.52 1.38 1.24 1.19 1.21 1.24 1.21 1.18 1.14 1.09 1.07 1.11
0.91 0.86 0.86 0.88 0.91 0.90 0.91 0.93 1.00 1.28 1.48 1.44 1.34 1.27 1.27 1.31 1.38 1.40 1.38 1.33 1.37 1.37 1.37 1.38 1.37 1.41 1.39 1.29 1.29 1.27 1.23 1.24 1.23 1.27 1.28 1.22 1.12 1.05
1.08 0.98 0.93 0.88 0.87 0.87 0.87 0.93 1.07 1.22 1.38 1.32 1.32 1.30 1.32 1.39 1.40 1.44 1.52 1.49 1.43 1.35 1.41 1.52 1.58 1.57 1.49 1.42 1.38 1.31 1.32 1.28 1.29 1.36 1.39 1.34 1.21 1.08
1.14 1.09 1.12 1.08 1.04 1.02 0.98 0.94 0.97 1.06 1.16 1.26 1.28 1.31 1.34 1.37 1.39 1.41 1.47 1.50 1.46 1.39 1.36 1.44 1.62 1.77 1.75 1.59 1.39 1.32 1.39 1.41 1.41 1.45 1.44 1.36 1.21 1.12
1.02 1.02 1.06 1.06 1.04 1.03 1.01 0.98 0.97 0.97 1.04 1.15 1.31 1.40 1.43 1.45 1.48 1.48 1.48 1.50 1.43 1.36 1.35 1.38 1.54 1.72 1.80 1.61 1.38 1.24 1.29 1.36 1.43 1.42 1.39 1.31 1.18 1.08
0.86 0.94 0.98 1.01 1.01 1.00 0.98 0.95 0.94 0.94 0.98 1.04 1.15 1.29 1.46 1.58 1.60 1.59 1.58 1.59 1.56 1.47 1.42 1.41 1.41 1.50 1.63 1.56 1.37 1.20 1.20 1.28 1.35 1.34 1.29 1.26 1.21 1.22
0.67 0.78 0.85 0.90 0.91 0.94 0.97 1.00 1.01 1.01 1.00 1.02 1.05 1.09 1.21 1.39 1.52 1.58 1.65 1.78 1.75 1.63 1.56 1.51 1.48 1.56 1.50 1.51 1.41 1.11 1.05 1.13 1.20 1.24 1.28 1.35 1.30 1.20
0.67 0.72 0.78 0.83 0.89 0.93 0.96 0.98 0.99 0.99 0.99 1.02 1.04 1.07 1.13 1.21 1.30 1.39 1.48 1.60 1.68 1.71 1.67 1.59 1.57 1.62 1.61 1.64 1.48 1.21 1.10 1.08 1.11 1.22 1.28 1.39 1.38 1.26
0.68 0.70 0.71 0.76 0.82 0.89 1.02 1.09 1.06 1.03 1.02 1.06 1.13 1.17 1.19 1.23 1.23 1.29 1.34 1.43 1.52 1.58 1.63 1.65 1.59 1.57 1.56 1.52 1.49 1.39 1.27 1.21 1.17 1.16 1.11 1.22 1.26 1.18